Tracking 25710 objects as of 7-Jul-2022
HD Live streaming from Space Station
objects crossing your sky now

FENGYUN 1C DEB

Track FENGYUN 1C DEB now!
10-day predictions


NORAD ID: 36180
Int'l Code: 1999-025DTD
Perigee: 686.0 km
Apogee: 1,017.6 km
Inclination: 98.5 °
Period: 101.8 minutes
Semi major axis: 7222 km
RCS: 0.0053 m2 (small)
Launch date: May 10, 1999
Source: People's Republic of China (PRC)
Launch site: Taiyaun Space Center, China (TSC)

Note: This is SATELLITE DEBRIS
aabbcc
Your satellite tracking list
Your tracking list is empty




NASA's NSSDC Master Catalog

Two Line Element Set (TLE):
1 36180U 99025DTD 22185.55388171  .00000416  00000-0  18641-3 0  9993
2 36180  98.5298 286.1141 0229502  61.0610 301.3369 14.14311973527764
Source of the keplerian elements: AFSPC